RH
90 100 100 94 100 100 100 100 100 100 97 94 71 56 48 33 27 27 30 34 32 52 34 49 60 64 69 68 75 54 40 58 80 90 97 92 99 76 86 67 68 79 95 98 89 95 91 43 45 62 61 50 42 40
93 90 95 100 100 100 100 99 100 100 98 92 91 55 44 35 35 40 40 46 45 43 38 34 44 42 48 54 52 63 57 77 72 87 95 96 86 96 86 96 63 74 74 71 82 69 48 49 51 50 47 40 42 48
99 98 99 98 98 99 100 100 100 100 99 100 93 64 44 39 41 46 50 54 52 45 32 38 53 57 52 50 57 58 71 61 74 74 85 98 100 92 95 88 73 60 51 73 67 49 50 49 49 44 39 38 42 50
62 89 100 99 100 98 86 92 86 97 95 83 71 58 56 57 51 44 42 47 56 46 80 40 48 50 44 52 62 58 59 68 68 73 78 97 99 75 96 74 82 67 65 75 64 55 49 47 46 46 48 51 55 53
80 66 55 56 75 96 99 80 88 92 90 80 82 83 78 75 64 59 58 57 55 60 74 52 46 51 46 51 62 64 64 62 69 86 97 96 80 82 78 86 75 58 67 80 72 52 56 54 53 59 61 62 61 62
84 88 77 68 43 46 85 95 90 95 93 76 80 72 75 78 75 76 77 79 80 74 85 92 57 49 61 55 54 58 56 57 72 84 78 72 68 70 100 100 62 51 52 53 58 55 57 61 63 67 85 92 78 71
35 56 87 84 60 60 86 100 98 93 81 74 75 76 87 92 89 79 89 97 93 89 74 77 70 55 51 48 51 51 54 62 72 82 93 80 76 75 100 86 55 52 54 49 49 60 70 63 80 81 88 66 60 59
71 35 40 82 84 56 78 97 100 98 83 71 78 88 87 86 79 83 75 96 93 93 79 93 91 59 68 60 51 56 68 79 75 75 85 98 80 81 98 68 45 39 43 52 48 54 55 60 60 47 38 32 46 34
78 78 41 38 83 87 60 86 95 98 89 76 95 94 94 90 76 68 69 79 86 89 82 82 96 82 63 62 59 60 69 94 74 93 91 80 93 96 70 55 43 39 41 51 43 49 56 54 52 46 35 37 45 38
66 64 76 43 40 90 89 85 99 97 96 97 96 86 73 75 80 99 99 91 100 91 96 97 77 96 68 66 62 68 76 96 98 78 80 99 85 50 42 42 43 40 44 41 39 31 28 46 44 39 35 33 55 49
67 37 67 80 50 51 85 94 100 92 97 98 94 75 83 86 96 93 92 83 87 89 84 79 78 93 75 82 84 71 93 95 100 87 91 96 99 59 29 31 32 26 30 34 34 35 35 36 36 34 36 36 35 52
79 60 66 71 74 63 69 79 99 96 88 85 74 78 88 92 95 86 82 93 97 94 76 90 87 89 76 73 77 85 98 95 96 80 99 100 77 26 27 27 24 26 26 27 27 30 30 34 38 42 45 46 46 47
83 72 72 74 71 71 71 89 99 96 92 79 71 88 87 92 96 89 98 89 88 75 76 85 86 84 87 84 88 92 100 99 77 99 95 80 28 24 25 25 28 26 28 32 35 36 38 40 44 48 50 49 49 51
88 89 70 53 75 68 73 88 98 98 97 74 75 100 95 100 92 89 84 84 59 71 68 68 64 70 70 79 84 86 87 92 100 100 77 54 25 23 26 26 30 34 38 40 42 43 44 46 48 49 49 49 55 60
78 89 97 84 67 73 70 90 98 98 93 70 78 96 100 73 70 73 61 59 61 64 65 66 72 76 89 90 92 92 95 100 97 84 66 30 31 32 34 36 38 44 49 50 51 53 53 53 56 56 49 52 55 59
84 90 81 83 79 78 78 95 98 97 92 64 78 96 95 86 77 78 74 62 72 72 69 67 99 100 100 96 98 97 97 97 68 80 38 38 40 40 41 44 47 51 54 56 56 56 57 59 60 62 65 62 61 64
91 93 85 65 70 79 94 98 97 97 90 79 100 79 58 60 51 53 58 50 59 73 88 91 100 90 87 100 100 91 93 56 42 40 42 44 48 51 50 51 49 49 53 52 53 57 60 62 65 70 74 70 72 73
98 86 100 99 90 92 99 98 97 96 96 90 94 86 76 54 39 46 52 59 72 78 71 84 70 100 94 100 90 70 44 43 46 49 52 54 55 54 55 58 54 52 54 55 61 66 72 78 81 83 83 82 82 86
97 96 96 92 98 100 98 98 97 95 90 89 81 70 72 64 46 40 38 40 48 57 60 72 93 99 92 71 53 51 53 57 59 56 56 57 56 56 55 55 55 59 64 68 76 81 85 88 89 88 88 93 96 94
90 83 79 88 86 97 97 97 97 91 97 92 88 75 75 68 54 48 47 49 56 75 78 96 92 56 53 45 45 50 52 54 58 62 61 59 58 60 61 63 66 70 81 94 95 99 97 96 95 97 96 97 97 97
92 100 94 94 80 86 93 96 97 96 82 91 90 82 79 76 70 66 62 62 77 84 84 60 53 48 50 52 49 48 49 49 57 62 64 66 56 67 70 70 73 87 98 98 98 96 99 96 96 95 98 96 96 96
73 83 86 98 93 94 95 96 96 97 92 94 95 82 77 83 76 75 71 86 85 67 61 54 49 48 48 45 34 37 41 44 42 42 43 51 64 68 73 78 91 96 98 97 97 96 96 95 96 95 95 96 97 96
84 96 86 87 88 93 96 94 93 96 96 98 99 88 89 83 76 75 84 72 59 48 43 44 44 42 40 34 37 36 34 39 47 54 62 68 74 82 88 94 97 97 97 94 94 96 95 95 95 96 96 95 95 94
85 77 81 86 82 98 99 98 97 95 98 99 99 97 93 90 97 96 96 68 42 39 36 30 32 32 31 31 31 36 44 55 63 70 78 87 93 99 100 100 97 95 96 96 95 95 95 96 97 95 95 96 95 96
96 97 95 96 98 95 99 96 92 97 100 100 100 97 94 98 100 100 100 54 30 22 24 25 26 28 32 36 40 48 56 72 82 91 83 89 96 95 94 94 92 90 95 95 96 97 94 95 95 95 96 96 96 96
95 97 90 91 98 89 98 100 100 99 99 100 100 97 100 100 100 91 83 35 20 22 25 28 31 35 40 48 59 63 70 77 82 91 89 99 97 97 97 99 96 86 95 96 96 96 95 95 95 95 95 95 96 98
100 99 93 88 80 82 92 90 89 94 100 100 100 100 100 99 97 73 35 24 22 24 32 35 40 48 56 59 60 63 71 92 97 94 92 95 96 96 96 96 95 95 97 96 97 97 96 95 95 95 95 95 97 99
69 93 98 95 89 83 94 99 99 96 93 82 90 100 96 88 77 34 22 24 28 33 37 42 50 56 58 63 74 90 95 92 63 60 60 65 92 95 95 96 96 96 96 96 96 96 96 96 96 96 96 96 96 98
92 89 88 100 97 86 78 85 83 66 61 69 87 90 78 48 29 27 29 35 39 42 46 54 57 60 66 85 90 82 54 54 61 62 76 83 84 91 96 96 95 95 95 95 95 97 97 97 97 97 98 98 97 96
93 91 86 100 100 97 55 52 53 48 47 48 44 41 36 33 35 40 43 45 49 54 57 61 62 76 88 66 39 36 55 66 72 94 99 96 98 94 95 95 95 95 95 96 96 95 96 97 97 96 94 88 88 93
88 89 83 85 88 64 50 50 51 52 55 55 52 57 54 55 50 50 50 52 57 61 63 65 85 72 39 32 42 61 62 70 88 96 99 99 96 95 95 95 95 96 96 96 97 96 96 97 97 90 93 98 99 98
93 95 89 100 79 60 61 62 61 64 62 62 63 62 64 67 66 58 58 61 62 63 69 88 85 42 30 38 63 77 88 92 93 95 95 96 94 96 96 96 96 96 96 96 96 97 98 97 96 92 96 98 98 97
100 99 93 80 73 66 70 71 71 73 77 75 72 74 76 72 68 63 64 65 63 70 87 87 56 34 32 40 55 70 76 87 93 95 97 96 97 96 97 95 95 96 96 97 97 96 98 98 92 96 99 98 98 98
Wind_Speed
12 8 7 18 25 25 30 29 27 24 22 19 12 11 10 8 7 6 5 6 8 5 7 8 7 6 4 4 3 1 4 1 2 1 2 3 3 3 3 3 3 5 4 4 3 5 8 10 5 1 8 22 24 26
10 11 9 6 10 12 10 13 14 13 15 16 11 10 10 8 8 7 6 7 7 8 6 6 7 8 10 7 5 4 2 2 1 2 1 2 2 1 2 3 2 4 5 1 5 6 10 8 3 15 19 24 25 20
10 6 7 7 8 8 6 7 9 9 10 9 8 10 10 9 8 8 7 7 7 6 9 10 3 4 5 5 9 7 5 4 2 2 2 1 3 2 2 5 4 4 6 3 5 2 14 33 42 41 38 35 37 36
14 14 9 8 10 7 4 5 7 9 9 7 8 9 8 7 7 6 6 7 5 3 2 2 5 2 7 8 9 10 9 4 7 5 2 2 2 5 3 5 4 7 4 5 15 21 28 29 28 35 37 36 36 35
15 15 15 16 15 13 12 10 11 10 8 4 4 4 5 6 6 5 5 7 6 4 3 6 10 3 4 4 12 11 10 11 8 3 3 4 5 3 5 3 10 8 5 4 13 27 24 33 38 34 35 38 36 37
17 16 15 14 14 17 16 16 14 14 9 6 6 6 4 4 3 3 2 3 5 6 2 3 2 1 3 4 3 9 10 9 7 5 5 6 10 7 2 3 5 17 18 29 28 32 37 37 35 28 23 21 19 22
18 18 16 15 13 15 15 19 16 14 10 10 7 7 6 5 4 4 1 1 4 2 3 5 7 2 3 2 4 6 8 7 8 5 6 8 8 10 2 12 35 32 30 27 26 25 22 17 20 24 17 18 24 23
16 17 20 17 16 14 14 15 18 15 12 11 9 8 7 7 9 9 9 6 6 2 2 0 4 5 1 1 1 2 3 5 7 6 5 4 3 6 4 15 23 24 24 26 26 22 20 22 20 25 19 21 21 22
16 16 17 19 18 17 15 17 16 15 11 11 11 9 7 6 5 6 7 7 8 6 2 3 2 3 0 1 2 2 2 1 3 5 5 4 2 5 12 22 26 29 29 26 25 28 24 23 27 32 33 35 29 25
17 16 17 17 20 19 18 17 17 14 14 15 13 6 3 3 4 5 4 4 6 6 5 4 5 2 3 3 2 2 2 2 1 4 3 2 4 26 32 35 33 31 27 18 19 21 26 27 30 32 33 37 35 31
21 18 17 17 18 20 22 22 20 17 19 20 9 5 8 5 7 3 2 4 4 3 6 7 12 4 5 3 4 4 2 0 1 4 3 2 4 13 24 29 26 31 24 18 21 28 28 30 35 37 38 36 37 35
22 20 17 18 19 19 23 23 29 29 24 18 11 12 10 6 2 2 3 2 4 4 6 6 7 12 5 7 4 2 2 3 6 1 1 3 5 25 24 27 25 24 26 31 39 41 43 40 38 37 37 37 36 38
23 21 21 20 20 20 21 23 28 33 28 22 8 7 6 4 2 6 7 4 4 6 9 10 6 5 6 6 3 3 1 6 4 2 4 5 13 25 24 27 27 31 34 39 42 42 40 40 39 38 38 38 37 39
24 22 25 25 23 22 22 25 22 39 31 7 9 5 5 4 5 6 5 5 9 7 16 14 5 6 5 4 3 2 3 2 3 2 6 4 23 24 25 26 30 40 44 43 43 42 42 42 41 40 39 40 40 41
24 22 23 23 24 23 23 27 26 44 11 9 8 6 7 11 7 5 17 5 8 12 13 6 2 2 2 2 2 1 4 5 6 5 4 22 33 36 38 38 44 44 42 42 43 43 43 43 43 43 43 42 43 43
22 23 27 24 23 22 23 28 34 28 13 10 8 4 5 10 7 9 16 16 14 15 8 3 4 3 3 3 2 7 4 7 6 4 25 31 35 38 42 44 45 45 44 43 43 43 43 44 44 45 43 44 44 42
23 27 22 21 21 23 24 24 21 9 11 7 7 20 22 14 24 23 19 18 20 15 3 4 4 9 2 1 3 4 6 8 19 27 34 38 38 40 44 46 47 45 45 46 47 47 46 46 45 43 42 43 41 39
27 27 22 16 16 20 26 24 11 9 7 10 8 15 28 12 17 18 21 20 18 13 9 5 5 2 5 5 5 8 22 30 31 34 37 39 40 43 44 43 46 46 47 49 47 46 44 42 40 38 38 39 38 37
20 16 11 6 12 21 9 11 9 8 8 9 14 15 25 23 23 19 17 17 20 12 7 7 3 4 5 13 19 27 29 28 30 35 36 40 43 44 45 45 46 47 44 42 42 42 42 40 39 39 38 35 32 34
10 9 6 3 1 3 3 2 7 7 9 9 11 17 13 11 22 24 23 22 23 12 7 4 7 27 26 34 31 33 37 38 33 34 36 39 39 38 40 40 41 43 41 40 43 39 39 40 38 36 35 33 32 33
9 7 5 4 5 6 3 2 2 3 10 6 13 15 6 9 11 16 23 24 19 8 9 28 37 40 36 37 39 41 41 40 38 36 39 40 43 38 39 38 36 36 37 40 38 39 33 33 35 36 34 32 32 31
7 7 6 3 2 3 0 1 2 4 4 9 13 9 6 6 7 14 12 17 11 24 28 35 36 35 36 38 35 33 34 34 35 38 42 41 39 38 38 37 35 36 39 35 31 33 33 31 29 27 26 25 25 25
8 10 6 4 3 2 3 5 1 2 3 5 6 3 1 3 5 11 7 10 14 30 30 31 31 28 30 30 29 26 26 33 38 39 37 37 39 36 35 36 37 33 35 34 30 28 27 27 27 26 27 26 24 23
10 6 6 8 4 4 7 2 3 4 4 2 3 1 2 3 4 3 3 6 21 19 22 25 23 17 16 18 23 30 37 37 37 36 33 32 36 39 37 35 36 32 28 28 27 27 27 28 28 27 25 23 22 20
6 7 7 4 5 5 3 2 2 2 2 2 3 2 2 4 1 2 4 8 16 21 12 8 9 12 19 25 33 39 38 31 30 35 39 36 35 35 36 32 29 26 26 26 28 28 28 27 26 24 22 21 19 17
3 4 5 9 5 5 6 5 5 5 3 2 5 2 3 3 1 6 4 7 8 6 10 14 17 23 29 33 37 37 34 31 30 32 35 31 31 28 29 29 29 28 25 26 26 27 27 24 23 22 21 18 16 14
3 4 6 4 5 7 4 5 6 4 4 6 3 4 3 2 5 6 9 14 10 9 16 21 27 29 34 36 32 27 26 28 28 30 30 27 23 20 21 23 27 28 25 24 24 23 24 24 24 23 21 18 14 10
3 8 6 9 4 4 4 2 5 7 5 8 12 4 8 9 5 6 6 12 18 23 29 30 32 33 29 24 21 27 26 28 31 28 27 22 23 24 25 27 25 23 24 23 23 23 22 23 24 22 19 16 11 5
4 7 12 4 3 4 8 6 8 9 10 14 6 5 7 9 17 21 22 24 29 31 34 34 27 21 17 20 23 22 27 27 29 26 25 28 31 31 30 29 26 28 28 27 24 21 19 16 15 14 9 4 1 4
4 14 3 4 5 5 6 10 4 7 11 15 16 16 20 26 27 26 29 33 32 29 22 17 13 17 22 24 28 26 22 20 15 18 24 29 32 33 32 30 30 31 29 27 23 19 14 9 7 8 7 8 9 7
6 15 3 6 4 2 6 8 13 12 12 15 21 23 28 29 33 32 25 21 17 12 9 7 12 16 21 24 26 28 24 19 17 19 22 26 28 29 30 30 32 30 25 21 18 16 14 8 6 6 6 6 5 5
8 9 6 2 4 6 6 6 6 6 8 13 19 22 19 13 10 13 11 8 5 5 5 12 17 19 21 21 21 18 20 22 24 24 25 27 28 29 28 30 28 23 19 16 14 13 9 6 4 5 4 4 4 5
3 4 4 2 2 3 3 3 2 4 4 4 3 3 4 5 5 4 5 5 4 4 8 15 17 21 20 19 17 18 21 22 21 23 23 24 25 25 26 25 22 19 16 13 11 10 6 4 6 5 4 3 3 4
Wind_Direction
286 304 279 244 240 236 222 230 241 245 258 249 262 272 281 287 289 289 277 246 224 247 267 235 228 208 176 174 150 336 346 327 39 131 163 250 194 251 311 260 201 188 191 214 224 260 266 28 16 34 336 326 316 308
288 300 295 248 180 191 232 253 255 245 246 237 238 263 271 280 286 283 264 258 251 246 268 264 236 247 248 242 194 196 207 163 189 164 131 270 284 349 168 284 295 280 205 219 196 239 311 318 346 308 308 303 302 303
263 262 285 297 299 276 262 240 216 226 262 249 240 263 267 269 267 263 260 264 273 275 275 278 261 206 223 249 221 209 220 206 171 87 139 225 269 118 245 251 237 298 320 248 312 287 305 309 308 309 318 310 309 305
259 259 241 244 251 255 247 238 261 259 273 283 274 268 269 276 274 264 255 257 255 263 288 256 201 192 262 247 233 230 207 221 272 248 253 203 212 212 237 261 230 234 306 251 273 289 296 291 298 302 299 299 300 295
259 260 265 260 255 255 244 233 232 234 229 243 258 270 281 286 288 277 266 252 245 236 295 292 289 172 320 245 228 214 225 260 259 198 167 222 226 243 252 285 263 225 238 248 281 295 284 290 293 294 297 294 289 292
257 259 259 261 263 251 244 234 232 225 223 234 230 256 258 270 267 305 303 261 219 208 306 317 289 175 116 71 183 216 232 239 224 203 215 231 215 203 214 252 238 268 281 287 278 290 297 294 296 294 307 297 297 297
260 257 260 258 255 246 244 226 220 219 227 230 221 227 213 226 274 270 287 149 161 171 291 309 331 217 252 274 187 217 211 218 225 225 237 239 221 215 214 264 274 286 288 288 299 311 307 329 304 317 293 308 302 303
270 261 252 254 253 249 240 235 224 215 213 216 214 213 219 246 277 267 249 218 187 263 283 101 283 319 178 247 266 226 229 213 225 237 249 238 221 218 260 251 276 285 291 285 300 306 293 300 306 318 323 305 307 318
265 265 259 247 247 247 236 231 239 206 209 205 201 203 224 257 260 248 234 222 226 218 208 197 175 249 288 249 277 270 252 4 253 240 238 184 208 215 238 261 277 288 294 295 318 311 296 297 300 312 318 313 291 300
267 262 262 255 244 245 233 225 225 217 187 195 182 174 174 174 204 162 163 176 196 217 228 227 205 262 202 193 255 290 225 228 261 246 194 189 245 253 270 277 279 289 299 293 305 318 319 304 309 308 312 312 301 297
266 264 257 259 254 242 248 210 212 184 185 177 173 155 133 168 180 192 185 205 198 237 217 229 212 217 213 175 214 217 216 203 9 266 159 286 277 264 286 290 295 306 307 278 308 311 313 305 308 305 306 307 300 298
262 262 262 257 255 249 247 241 199 191 189 183 166 134 142 166 166 201 204 250 195 227 206 190 201 205 210 213 196 200 183 48 246 326 127 261 254 303 301 294 303 312 321 310 311 315 311 309 307 305 304 306 303 302
255 257 255 257 252 249 243 231 214 191 176 152 150 148 153 160 138 209 199 217 222 206 192 184 187 185 188 207 201 107 147 236 326 43 226 226 279 300 303 309 310 313 313 311 308 305 307 306 306 305 305 306 304 303
251 253 259 252 250 246 239 232 217 180 159 151 158 150 171 207 221 200 190 184 205 189 174 177 150 180 192 162 189 154 243 36 320 327 238 253 307 299 300 313 311 313 314 314 309 308 307 307 307 306 306 307 306 301
249 254 257 255 244 243 237 224 209 180 143 164 167 200 200 206 210 220 207 202 176 161 154 145 147 180 34 42 186 40 330 252 212 234 237 310 311 305 306 308 313 310 307 304 304 301 302 304 302 300 305 307 305 301
249 254 250 245 239 233 225 216 197 174 170 170 196 141 160 164 210 208 201 195 168 166 161 171 107 62 255 177 114 220 169 232 254 241 290 302 304 301 302 308 307 305 301 300 301 301 301 300 299 298 300 301 303 303
241 245 252 250 237 226 229 195 175 175 169 193 221 201 184 191 200 206 197 197 192 186 173 131 129 217 136 265 257 207 216 252 279 291 297 298 297 298 302 303 305 305 304 305 307 304 299 301 301 297 293 302 305 304
246 247 228 230 224 218 221 202 171 166 184 198 171 198 194 181 189 202 206 192 175 193 175 202 178 149 209 207 244 248 272 285 289 287 291 295 299 299 298 294 299 303 303 304 303 302 300 298 297 295 295 296 295 294
165 163 186 224 202 194 207 184 168 170 207 174 181 175 194 200 210 219 209 207 211 205 191 183 189 209 226 231 254 269 279 283 286 292 293 294 296 296 298 300 301 299 299 299 298 296 295 293 292 293 293 292 289 292
144 163 158 103 96 102 138 185 172 172 168 163 158 174 176 200 216 220 222 217 212 205 203 200 218 239 243 258 270 276 281 287 290 292 292 293 295 296 295 295 295 298 298 296 298 299 299 300 301 302 302 304 301 302
132 133 138 151 66 57 44 287 226 122 127 132 152 155 177 188 190 204 214 215 204 212 227 233 245 256 263 267 279 290 292 295 290 287 287 293 304 299 298 299 300 299 297 301 302 304 306 307 309 310 298 308 314 312
159 173 169 135 99 118 229 335 28 88 121 129 151 154 150 166 184 201 203 201 225 230 232 246 257 268 275 284 297 302 302 304 308 308 309 308 301 303 303 303 304 301 303 307 310 312 312 312 312 312 312 315 315 314
161 160 140 148 115 104 148 166 59 31 95 141 130 100 145 190 191 179 220 223 236 246 254 260 272 279 281 294 296 301 311 312 310 311 310 307 306 303 302 302 304 306 309 310 315 316 315 317 320 322 319 316 322 324
208 180 171 177 167 167 162 180 145 130 123 87 92 162 246 190 169 206 248 254 257 267 281 290 293 293 293 297 301 308 317 321 314 312 311 307 302 304 306 306 307 313 315 320 321 321 322 318 319 323 324 325 322 321
149 158 178 164 176 124 97 111 148 104 143 171 94 288 269 164 138 232 233 263 288 302 312 305 303 306 304 304 309 316 322 317 308 304 307 312 313 312 313 318 320 321 323 323 321 318 319 321 321 322 324 326 325 327
144 176 159 179 176 163 177 136 176 181 141 150 211 108 133 97 125 246 237 262 289 333 347 332 319 311 309 314 316 317 315 312 310 309 315 317 318 317 319 321 323 324 328 321 319 320 320 322 322 324 326 330 330 327
150 228 180 183 174 146 110 105 138 133 164 189 185 142 109 152 243 252 249 261 277 312 315 317 317 314 313 314 313 312 313 315 315 313 316 319 324 326 328 325 325 324 329 329 328 326 325 325 325 325 322 323 327 326
197 176 170 169 163 164 126 109 156 189 196 166 146 175 176 196 228 229 281 307 309 311 311 314 314 313 312 312 316 318 318 322 319 319 321 323 333 341 341 338 333 336 336 336 340 337 332 325 319 315 311 309 315 314
203 179 157 130 153 198 202 182 203 208 184 174 169 201 224 227 261 279 294 302 306 309 309 311 313 312 313 314 319 324 322 321 324 329 333 334 340 343 341 340 341 344 347 345 347 344 335 328 323 323 330 326 164 139
211 179 132 166 164 215 227 204 215 207 208 219 236 255 263 271 284 295 300 303 305 304 305 308 317 323 325 326 328 333 338 338 340 339 333 332 332 336 338 342 344 346 346 343 342 348 360 13 33 39 72 108 117 123
175 187 192 193 237 243 221 238 244 254 253 253 258 260 271 286 295 300 300 300 300 302 305 311 327 333 331 334 336 336 343 348 344 339 333 331 332 335 341 342 340 338 338 341 347 354 3 27 58 90 112 105 89 94
186 195 179 173 258 250 253 244 244 245 260 266 264 271 271 274 283 284 281 290 292 295 301 331 336 340 339 338 339 340 342 342 340 339 338 341 342 339 339 333 333 336 341 347 351 358 13 41 94 127 90 69 77 89
178 187 195 250 257 245 230 201 273 294 262 269 259 245 231 221 244 262 279 277 278 278 320 333 335 339 339 340 341 342 343 342 340 340 338 341 341 342 336 336 338 342 345 348 355 3 23 103 136 132 81 65 83 100